Home   Weather   Fredericton   Past weeks

Flag for Canada Past Weather in Fredericton, New Brunswick, Canada — Yesterday and Last 2 Weeks

Now
59 °F

Sunny.


Feels Like: 60 °F
Forecast: 41 / 63 °F
Wind: 3 mph from East

Location: Fredericton

Current Time: Oct 1, 2016 at 2:22:14 PM

Latest Report: Oct 1, 2016 at 1:00 PM


Visibility: 9 mi

Pressure: 30.38 "Hg

Humidity: 68%

Dew Point: 48 °F

Location of FrederictonLocation

Past Weather in Fredericton — Graph

°F

Fredericton Temperature Yesterday

Maximum temperature yesterday: 64 °F (at 3:00 PM)
Minimum temperature yesterday: 30 °F (at 5:00 AM)
Average temperature yesterday: 44 °F

High & Low Weather Summary for the Past Weeks

 TemperatureHumidityPressure
High77 °F (Sep 21, 3:00 PM)100% (Sep 17, 5:00 AM)30.57 "Hg (Sep 17, 5:00 AM)
Low30 °F (Sep 30, 5:00 AM)30% (Sep 21, 5:00 PM)29.91 "Hg (Sep 25, 5:00 AM)
Average54 °F82%30.13 "Hg
* Reported Sep 16 1:00 PM — Oct 1 1:00 PM, Fredericton, Weather by CustomWeather, © 2016

Note: Actual official high and low records may vary slightly from our data, if they occured in-between our weather recording intervals... More about our weather records

Advertising

Fredericton Weather History for the Previous 24 Hours

Scroll right to see more
 ConditionsComfort  
Time TempWeatherWind HumidityBarometerVisibility
1:00 PM
Sat, Oct 1
59 °FSunny.3 mph68%30.38 "Hg9 mi
12:00 PM55 °FPassing clouds.2 mph77%30.41 "Hg9 mi
11:00 AM50 °FPartly sunny.2 mph88%30.42 "Hg9 mi
10:00 AM46 °FSunny.2 mph93%30.42 "Hg9 mi
9:00 AM45 °FSunny.No wind93%30.42 "Hg9 mi
8:00 AM41 °FSunny.3 mph93%30.42 "Hg9 mi
7:00 AM39 °FPartly cloudy.3 mph100%30.42 "Hg9 mi
6:00 AM39 °FPassing clouds.No wind100%30.42 "Hg9 mi
5:00 AM39 °FOvercast.No wind100%30.42 "Hg9 mi
4:00 AM39 °FPassing clouds.5 mph93%30.43 "Hg9 mi
3:00 AM39 °FPassing clouds.3 mph93%30.43 "Hg9 mi
2:00 AM41 °FClear.No wind93%30.44 "Hg9 mi
1:00 AM41 °FClear.No wind100%30.44 "Hg9 mi
12:00 AM41 °FClear.3 mph100%30.45 "Hg9 mi
11:00 PM
Fri, Sep 30
43 °FClear.2 mph93%30.45 "Hg9 mi
10:00 PM43 °FClear.5 mph100%30.45 "Hg9 mi
9:00 PM45 °FClear.2 mph100%30.45 "Hg9 mi
8:00 PM50 °FClear.3 mph88%30.45 "Hg9 mi
7:00 PM55 °FSunny.2 mph82%30.45 "Hg9 mi
6:00 PM61 °FSunny.No wind68%30.45 "Hg9 mi
5:00 PM64 °FSunny.2 mph43%30.45 "Hg9 mi
4:00 PM64 °FSunny.2 mph46%30.47 "Hg9 mi
3:00 PM64 °FSunny.5 mph49%30.49 "Hg9 mi
2:00 PM63 °FSunny.6 mph52%30.51 "Hg9 mi
Weather by CustomWeather, © 2016

See weather overviewHow to use our weather pages